Showing default

OV1-14, 3174

Orbit data source: Space-Track

OV1-14, 3174 is a payload satellite owned by USAF OAR (US) that was launched on Sat, 06 Apr 1968 UTC via an ATLAS F launch vehicle from the Air Force Western Test Range (AFWTR). Payload-class satellites include a variety of spacecraft equipped with specific instruments for various scientific and technological missions. These include communications satellites like Starlink; space stations such as the ISS; scientific satellites like the Hubble; Earth observation satellites from companies like Planet Labs, Umbra, and HawkEye 360; GPS; miniature CubeSats for education and research; and military/defense satellites.

Loading next visibility...
Identifier
3174, 1968-026B
Orbit
Active
Country
Flag of USUS
Related business
Manufacturer
GD/Convair
Mission
Spacecraft
Bus & Motor
OV1, Unknown motor
Mass
101 kg wet, 101 kg dry
Launch date (UTC)
1968-04-06 (58 years ago)
Launch vehicle
ATLAS F
Launch site
Air Force Western Test Range (AFWTR)
Object type
Payload
Rocket body
Debris
Shape & HBR
Unknown
Radar Cross Section
Medium (>0.1 m² and <1 m²)

Expand to show TLE details & history
Last TLE update: 20 hours ago

TLE from 20 hours ago
0 OV1-14
1 03174U 68026B   26037.04020479  .00000391  00000-0  65739-3 0  9997
2 03174 100.0210 319.8273 4005544  38.2493  33.6049  6.96732319467182
Epoch: 2026-02-06T00:57Z
TLE epoch observation values (Epoch: 2026-02-06T00:57:53.693Z)
Latitude
66.75503°
Longitude
13.34423°
Altitude
2,330.362 km
Speed
7.569 km/s
True Right ascension
10h 56m 00s
True Declination
66° 39' 10"
Sunlit
Object was in daylight at epoch
Visualization orbit readout
Latitude
Unknown
Longitude
Unknown
Altitude
Unknown
Speed
Unknown
Apparent Right ascension
Unknown
Apparent Declination
Unknown
Sunlit
N/A
Visualization observer readout
Local Sidereal Time
23:17:44
Azimuth
Unknown
Elevation
Unknown
Doppler factor
Unknown
Orbital elements
Apogee altitude
9,836.497 km
Perigee altitude
561.823 km
Semi-major axis
11,577.297 km
Eccentricity
0.40055
Inclination
100.021°
RAAN
319.8273°
Arg. of periapsis
38.2493°
True anomaly
72.90797°
Mean anomaly
33.6049°
Eccentric anomaly
51.58765°
Mean motion
1.74234 °/min
Orbital period
206.62 mins
BSTAR
0.00065739
Loading maneuver chart data...
Computing Atmospheric mass density...
Loading historical data...
Loading historical data...
Loading historical data...
Loading historical data...
Loading historical data...
Loading historical data...
Loading historical data...
Other satellites on launch #26 in the year 1968 (1968-04-06 UTC)

Documentation

Showing up to 5 results
|